TimeAEST,TemperatureF,Dew PointF,Humidity,Sea Level PressureIn,VisibilityMPH,Wind Direction,Wind SpeedMPH,Gust SpeedMPH,PrecipitationIn,Events,Conditions,WindDirDegrees,DateUTC
12:00 AM,71,68,86,30.01,,South,11.5,,,,Overcast,180,2013-05-31 14:00:00
12:00 AM,71.6,68.0,88,30.01,6.2,South,11.5,-,N/A,Rain,Light Rain Showers,180,2013-05-31 14:00:00
12:30 AM,71.6,66.2,83,30.01,6.2,South,12.7,-,N/A,,Mostly Cloudy,180,2013-05-31 14:30:00
1:00 AM,70,67,87,30.01,,South,10.4,,,,,170,2013-05-31 15:00:00
1:00 AM,69.8,66.2,88,29.98,6.2,South,10.4,-,N/A,,Scattered Clouds,170,2013-05-31 15:00:00
1:30 AM,69.8,68.0,94,30.01,3.7,SSE,10.4,-,N/A,Rain,Rain Showers,150,2013-05-31 15:30:00
1:48 AM,69.8,68.0,94,29.98,2.5,South,6.9,-,N/A,Rain,Rain Showers,170,2013-05-31 15:48:00
2:00 AM,69.8,68.0,94,29.98,4.3,South,6.9,-,N/A,Rain,Light Rain Showers,170,2013-05-31 16:00:00
2:12 AM,69.8,68.0,94,29.98,5.0,South,10.4,-,N/A,Rain,Light Rain Showers,170,2013-05-31 16:12:00
2:27 AM,71.6,66.2,83,29.98,6.2,South,12.7,-,N/A,,Drizzle,180,2013-05-31 16:27:00
3:00 AM,70,67,85,29.97,,South,10.4,,,,,170,2013-05-31 17:00:00
3:00 AM,69.8,66.2,88,29.98,6.2,South,10.4,-,N/A,,Mostly Cloudy,170,2013-05-31 17:00:00
3:30 AM,69.8,66.2,88,29.95,6.2,South,11.5,-,N/A,,Unknown,170,2013-05-31 17:30:00
4:00 AM,69.8,66.2,88,29.95,6.2,South,10.4,-,N/A,,Partly Cloudy,170,2013-05-31 18:00:00
4:30 AM,71.6,64.4,78,29.95,6.2,South,11.5,-,N/A,,Scattered Clouds,180,2013-05-31 18:30:00
5:00 AM,69.8,66.2,88,29.98,6.2,South,12.7,-,N/A,,Scattered Clouds,180,2013-05-31 19:00:00
5:30 AM,71.6,66.2,83,29.98,6.2,South,13.8,-,N/A,,Mostly Cloudy,190,2013-05-31 19:30:00
6:00 AM,70,66,83,29.99,16,South,13.8,,,,Partly Cloudy,180,2013-05-31 20:00:00
6:00 AM,69.8,66.2,88,29.98,6.2,South,13.8,-,N/A,,Mostly Cloudy,180,2013-05-31 20:00:00
6:30 AM,69.8,66.2,88,29.98,6.2,South,13.8,-,N/A,,Mostly Cloudy,180,2013-05-31 20:30:00
7:00 AM,70,66,85,30.01,,South,12.7,,,,,180,2013-05-31 21:00:00
7:00 AM,69.8,66.2,88,29.98,6.2,South,12.7,-,N/A,,Mostly Cloudy,180,2013-05-31 21:00:00
7:30 AM,71.6,66.2,83,30.01,6.2,South,12.7,-,N/A,,Scattered Clouds,180,2013-05-31 21:30:00
8:00 AM,73.4,66.2,78,30.01,6.2,South,11.5,-,N/A,,Scattered Clouds,180,2013-05-31 22:00:00
8:30 AM,73.4,66.2,78,30.01,6.2,South,12.7,-,N/A,,Partly Cloudy,170,2013-05-31 22:30:00
9:00 AM,74,67,71,30.03,19,South,12.7,,,,Partly Cloudy,170,2013-05-31 23:00:00
9:00 AM,75.2,66.2,73,30.04,6.2,South,12.7,-,N/A,,Partly Cloudy,170,2013-05-31 23:00:00
9:30 AM,75.2,68.0,78,30.04,6.2,South,11.5,-,N/A,,Scattered Clouds,170,2013-05-31 23:30:00
10:00 AM,77,67,64,30.04,,SSE,15.0,,,,,160,2013-06-01 00:00:00
10:00 AM,77.0,66.2,69,30.04,6.2,SSE,15.0,-,N/A,,Partly Cloudy,160,2013-06-01 00:00:00
10:30 AM,78.8,66.2,65,30.01,6.2,SSE,16.1,-,N/A,,Partly Cloudy,160,2013-06-01 00:30:00
11:00 AM,80.6,66.2,61,30.01,6.2,SE,21.9,-,N/A,,Partly Cloudy,140,2013-06-01 01:00:00
11:30 AM,80.6,66.2,61,30.01,6.2,SE,17.3,-,N/A,,Partly Cloudy,140,2013-06-01 01:30:00
12:00 PM,80,66,54,29.99,19,SE,17.3,,,,Partly Cloudy,140,2013-06-01 02:00:00
12:00 PM,78.8,66.2,65,29.98,6.2,SE,17.3,-,N/A,,Partly Cloudy,130,2013-06-01 02:00:00
12:30 PM,78.8,68.0,69,29.98,6.2,SE,19.6,-,N/A,,Mostly Cloudy,130,2013-06-01 02:30:00
12:52 PM,75.2,68.0,78,29.98,3.1,SE,23.0,-,N/A,Rain,Light Rain Showers,130,2013-06-01 02:52:00
1:00 PM,74,70,84,29.99,,SE,20.7,,,,,140,2013-06-01 03:00:00
1:00 PM,73.4,69.8,88,29.98,6.2,SE,20.7,-,N/A,,Mostly Cloudy,140,2013-06-01 03:00:00
1:30 PM,75.2,68.0,78,29.95,6.2,SE,18.4,-,N/A,Rain,Light Rain Showers,140,2013-06-01 03:30:00
2:00 PM,75.2,68.0,78,29.95,6.2,SSE,17.3,-,N/A,,Mostly Cloudy,150,2013-06-01 04:00:00
2:30 PM,75.2,66.2,73,29.95,6.2,SSE,15.0,-,N/A,,Mostly Cloudy,150,2013-06-01 04:30:00
3:00 PM,75,66,67,29.94,19,South,9.2,,,,Partly Cloudy,180,2013-06-01 05:00:00
3:00 PM,75.2,66.2,73,29.95,6.2,South,9.2,-,N/A,,Mostly Cloudy,180,2013-06-01 05:00:00
3:30 PM,75.2,66.2,73,29.92,6.2,South,9.2,-,N/A,,Mostly Cloudy,170,2013-06-01 05:30:00
4:00 PM,74,66,69,29.95,,South,12.7,,,,,170,2013-06-01 06:00:00
4:00 PM,73.4,66.2,78,29.95,6.2,South,12.7,-,N/A,,Mostly Cloudy,170,2013-06-01 06:00:00
4:30 PM,73.4,66.2,78,29.95,6.2,South,11.5,-,N/A,,Scattered Clouds,180,2013-06-01 06:30:00
5:00 PM,73.4,68.0,83,29.95,6.2,South,10.4,-,N/A,,Scattered Clouds,180,2013-06-01 07:00:00
5:30 PM,73.4,66.2,78,29.95,6.2,South,9.2,-,N/A,,Scattered Clouds,180,2013-06-01 07:30:00
6:00 PM,73,66,74,29.96,,South,11.5,,,,Overcast,180,2013-06-01 08:00:00
6:00 PM,73.4,66.2,78,29.95,6.2,South,11.5,-,N/A,,Mostly Cloudy,180,2013-06-01 08:00:00
6:30 PM,73.4,66.2,78,29.95,6.2,South,11.5,-,N/A,Rain,Light Rain Showers,190,2013-06-01 08:30:00
7:00 PM,72,66,77,29.98,,South,11.5,,,,,190,2013-06-01 09:00:00
7:00 PM,71.6,66.2,83,29.98,6.2,South,11.5,-,N/A,,Mostly Cloudy,190,2013-06-01 09:00:00
7:30 PM,71.6,66.2,83,29.98,6.2,South,11.5,-,N/A,,Scattered Clouds,190,2013-06-01 09:30:00
8:00 PM,71.6,66.2,83,29.98,6.2,South,10.4,-,N/A,,Mostly Cloudy,170,2013-06-01 10:00:00
8:30 PM,71.6,66.2,83,29.98,6.2,SSE,8.1,-,N/A,,Mostly Cloudy,160,2013-06-01 10:30:00
9:00 PM,71,65,76,30.00,,South,9.2,,,,,180,2013-06-01 11:00:00
9:00 PM,71.6,64.4,78,30.01,6.2,South,9.2,-,N/A,,Scattered Clouds,180,2013-06-01 11:00:00
9:30 PM,71.6,64.4,78,29.98,6.2,South,9.2,-,N/A,,Mostly Cloudy,180,2013-06-01 11:30:00
10:00 PM,71,66,80,30.00,,SSE,8.1,,,,,160,2013-06-01 12:00:00
10:00 PM,71.6,66.2,83,29.98,6.2,SSE,8.1,-,N/A,,Mostly Cloudy,160,2013-06-01 12:00:00
10:30 PM,69.8,68.0,94,29.98,6.2,SE,9.2,-,N/A,,Mostly Cloudy,140,2013-06-01 12:30:00
11:00 PM,69.8,66.2,88,29.98,6.2,SSE,8.1,-,N/A,Rain,Light Rain Showers,160,2013-06-01 13:00:00
11:30 PM,69.8,66.2,88,29.98,6.2,ESE,8.1,-,N/A,,Scattered Clouds,110,2013-06-01 13:30:00